Temperature
9 9 8 8 8 8 7 7 7 6 6 6 6 6 5 4 4 4 3 3 2 1 1 1 1 1 0 0 0 -0 -0 -0 -0 -1 -1 -1 -1 -1
8 8 7 7 7 7 6 6 6 6 5 5 5 4 4 4 3 2 2 1 1 1 0 0 -0 -0 -1 -1 -1 -1 -1 -1 -1 -2 -2 -2 -2 -2
7 7 6 6 6 6 5 5 5 5 4 4 4 3 3 3 2 2 1 1 0 -0 -0 -1 -1 -1 -1 -1 -2 -2 -2 -2 -2 -2 -2 -2 -2 -2
6 5 5 5 5 5 4 4 4 4 3 3 3 2 2 1 1 1 0 -0 -1 -1 -1 -1 -2 -2 -2 -3 -3 -3 -3 -3 -3 -3 -3 -3 -3 -3
5 4 4 4 4 3 3 3 3 2 2 2 1 1 1 0 -0 -0 -1 -1 -1 -2 -2 -2 -3 -3 -3 -3 -3 -4 -3 -3 -3 -3 -3 -2 -3 -3
4 3 3 3 2 2 2 2 1 1 1 1 0 -0 -0 -1 -1 -2 -2 -2 -2 -3 -3 -3 -3 -3 -3 -3 -3 -3 -3 -3 -3 -3 -3 -3 -3 -3
2 2 2 1 1 1 0 0 -0 -0 -0 -1 -1 -2 -2 -2 -3 -3 -3 -3 -3 -3 -3 -3 -3 -3 -3 -3 -3 -3 -3 -3 -3 -3 -4 -4 -4 -4
1 1 0 -0 -0 -1 -1 -1 -1 -1 -2 -2 -3 -3 -3 -4 -4 -4 -4 -4 -4 -4 -4 -3 -4 -3 -3 -3 -3 -3 -3 -4 -4 -4 -4 -4 -4 -4
0 -0 -1 -1 -1 -1 -2 -2 -2 -3 -3 -3 -4 -4 -5 -5 -5 -5 -5 -5 -5 -5 -5 -3 -3 -4 -4 -4 -4 -4 -4 -4 -4 -4 -4 -4 -4 -4
-1 -1 -2 -2 -2 -3 -2 -3 -3 -4 -4 -5 -5 -5 -5 -6 -6 -6 -6 -6 -5 -6 -6 -5 -4 -3 -3 -3 -3 -4 -4 -4 -5 -5 -5 -4 -4 -4
-2 -2 -3 -3 -4 -4 -4 -4 -4 -4 -5 -5 -6 -6 -6 -6 -6 -6 -6 -6 -6 -5 -5 -5 -5 -4 -3 -3 -3 -4 -4 -5 -5 -5 -5 -5 -5 -5
-3 -3 -3 -4 -5 -5 -5 -5 -5 -5 -5 -5 -6 -6 -6 -6 -6 -6 -6 -7 -7 -7 -6 -6 -6 -6 -5 -4 -4 -4 -4 -5 -5 -5 -5 -5 -5 -5
-3 -4 -4 -4 -5 -5 -5 -5 -5 -6 -5 -6 -6 -6 -6 -6 -6 -6 -6 -7 -7 -7 -7 -8 -7 -7 -8 -6 -4 -4 -4 -5 -5 -5 -5 -5 -6 -6
-4 -4 -4 -5 -5 -5 -5 -6 -6 -6 -6 -6 -6 -6 -6 -6 -6 -6 -6 -7 -7 -7 -7 -8 -8 -8 -8 -8 -6 -4 -4 -5 -5 -5 -6 -6 -6 -6
-4 -5 -5 -5 -5 -5 -6 -6 -6 -6 -6 -6 -6 -6 -6 -6 -6 -6 -6 -7 -7 -7 -7 -7 -8 -8 -8 -9 -7 -6 -5 -5 -5 -6 -6 -6 -6 -6
-5 -5 -5 -5 -6 -6 -6 -6 -6 -6 -6 -6 -6 -6 -6 -7 -7 -7 -7 -7 -6 -6 -7 -7 -8 -8 -8 -8 -8 -7 -6 -6 -6 -6 -7 -6 -6 -6
-5 -5 -5 -5 -6 -6 -6 -6 -7 -7 -7 -7 -7 -7 -7 -7 -7 -7 -7 -7 -7 -7 -6 -7 -8 -8 -8 -8 -8 -7 -6 -6 -7 -7 -7 -7 -6 -6
-5 -5 -5 -6 -6 -6 -6 -7 -7 -7 -7 -7 -7 -7 -7 -7 -7 -7 -8 -8 -8 -8 -7 -7 -8 -8 -8 -7 -7 -7 -7 -7 -7 -7 -8 -8 -7 -6
-5 -5 -6 -6 -6 -7 -7 -7 -7 -7 -7 -7 -8 -8 -8 -8 -8 -8 -8 -8 -8 -8 -8 -8 -8 -9 -10 -9 -8 -8 -8 -8 -8 -8 -8 -8 -8 -6
-5 -6 -6 -6 -7 -7 -7 -7 -7 -7 -7 -8 -8 -8 -8 -8 -9 -9 -9 -9 -9 -9 -8 -8 -8 -9 -10 -10 -9 -8 -7 -8 -8 -8 -8 -8 -7 -7
-5 -6 -6 -6 -7 -7 -7 -7 -7 -7 -8 -8 -8 -8 -9 -9 -9 -9 -9 -9 -9 -9 -9 -8 -8 -9 -9 -10 -10 -8 -7 -7 -8 -8 -8 -8 -8 -8
-5 -6 -6 -7 -7 -7 -7 -8 -8 -8 -8 -8 -8 -9 -9 -9 -9 -9 -9 -9 -9 -9 -9 -9 -8 -9 -9 -10 -10 -9 -7 -7 -7 -8 -8 -8 -9 -8
-5 -6 -6 -6 -7 -7 -7 -8 -8 -8 -8 -8 -9 -9 -9 -9 -9 -9 -9 -9 -9 -9 -9 -9 -9 -9 -9 -9 -9 -9 -8 -8 -8 -7 -7 -7 -7 -8
Wind_Speed
3 2 2 2 2 1 1 2 4 5 5 3 2 1 2 3 6 7 8 11 11 11 11 10 10 11 12 12 13 14 14 14 15 15 16 16 16 17
4 5 4 4 4 4 3 2 1 2 2 1 1 1 1 3 5 5 6 8 8 9 9 10 11 12 12 13 14 14 15 15 16 16 17 17 17 17
7 7 7 6 5 5 4 4 3 2 1 2 2 2 1 1 2 4 3 3 3 6 8 10 11 12 13 13 14 15 15 15 16 16 17 17 17 17
8 8 8 6 7 6 5 5 4 4 1 2 2 2 2 1 2 2 2 2 2 6 8 10 11 12 13 14 14 15 15 15 16 16 17 17 17 17
8 8 7 7 7 6 6 6 5 5 4 3 2 2 2 2 2 1 1 1 2 5 8 9 10 12 13 13 14 14 14 15 15 16 16 17 17 18
9 8 7 6 6 6 6 6 5 5 5 4 3 3 2 2 2 1 1 1 2 4 6 7 9 11 12 14 14 14 15 15 16 16 17 17 17 18
9 8 8 9 9 6 5 5 5 4 4 4 3 2 2 2 1 1 1 2 2 1 2 4 7 9 12 14 14 14 14 15 15 16 16 17 17 18
7 7 7 8 10 11 10 8 6 4 3 2 2 1 1 1 1 1 1 2 3 2 2 5 5 6 9 12 13 14 14 14 15 15 16 17 17 18
6 5 5 6 8 6 8 10 9 9 6 2 1 0 1 1 1 1 1 2 4 3 2 5 3 5 8 11 13 14 13 13 13 13 14 15 16 17
5 4 4 5 4 5 5 6 6 5 5 2 1 2 3 3 4 3 3 3 4 4 3 4 3 4 5 10 13 10 8 9 10 12 13 15 16 17
4 3 3 3 6 7 5 4 4 5 6 7 5 5 6 6 4 1 1 2 3 3 1 2 3 4 4 4 6 6 8 11 13 14 15 16 17 17
3 4 5 4 6 6 2 2 3 4 3 4 6 7 6 7 6 2 2 2 2 3 2 1 2 4 5 3 3 7 10 12 13 14 17 17 17 13
2 3 4 7 7 6 4 1 4 2 1 3 3 4 3 3 3 3 0 3 3 4 2 1 2 2 3 5 4 4 6 7 9 13 17 16 14 12
1 2 4 7 6 6 4 5 6 4 2 2 3 3 3 3 3 4 5 6 7 8 9 6 4 4 5 7 7 4 4 7 9 8 10 13 13 16
2 5 6 6 5 4 5 6 4 2 2 2 3 3 3 4 4 5 6 7 9 11 13 12 8 7 7 8 8 8 7 6 6 5 5 6 7 8
3 4 5 5 4 4 4 4 3 2 2 2 3 4 4 4 4 4 4 5 5 5 7 11 11 8 8 10 11 12 9 7 6 7 8 9 9 11
2 1 2 2 3 3 2 2 2 3 3 3 3 4 5 5 6 5 4 5 5 6 7 5 9 11 10 10 11 12 12 11 10 9 8 10 9 8
2 1 2 2 3 3 3 3 3 3 3 4 4 5 6 6 6 6 5 6 7 8 8 7 6 6 5 7 13 12 11 10 9 8 8 11 13 9
1 2 3 3 3 4 3 3 4 4 4 4 5 6 6 6 6 7 6 7 8 8 8 7 6 6 9 10 6 10 9 8 9 10 10 10 13 11
2 3 4 4 4 4 4 4 4 5 5 5 6 6 6 6 7 7 7 8 9 9 9 7 6 7 9 10 9 9 14 12 11 12 12 11 11 15
4 4 5 5 5 5 5 5 5 5 6 6 6 7 6 7 7 7 8 12 11 9 10 10 9 12 9 7 10 10 9 14 16 12 12 13 14 12
5 5 5 5 5 5 5 5 5 6 6 6 7 7 7 7 8 9 9 9 9 10 11 11 10 9 7 10 13 15 15 13 14 21 22 21 13 8
6 6 5 5 5 5 5 6 7 7 7 7 7 7 7 8 8 9 10 10 10 11 12 12 10 9 10 11 13 14 16 16 12 12 12 17 23 26
Wind_Direction
7 8 358 356 0 333 286 231 231 245 244 212 187 114 141 146 172 171 177 196 205 220 232 247 263 270 273 276 278 281 282 283 283 282 281 280 280 280
37 46 45 35 37 33 28 10 316 244 245 72 97 73 136 157 167 157 175 196 214 231 243 255 264 270 273 276 277 278 278 279 279 278 278 279 279 279
49 56 53 47 48 38 38 37 27 26 179 73 57 57 84 125 126 134 154 191 228 253 266 272 275 276 277 277 277 277 277 277 277 278 278 278 279 279
53 57 54 54 51 43 44 42 34 26 64 97 60 53 57 109 102 122 159 201 243 269 275 277 278 278 278 279 277 277 277 277 277 277 277 277 278 278
56 58 53 58 56 49 50 47 38 36 43 77 67 52 52 68 80 75 76 4 279 278 282 285 287 286 287 286 283 282 282 281 279 277 277 277 277 278
55 53 50 55 60 57 54 47 47 47 49 62 61 49 45 51 68 54 2 344 298 299 297 296 296 297 297 293 290 288 287 283 280 278 277 276 276 276
53 45 47 56 60 62 64 55 52 50 47 52 50 39 28 30 26 11 335 328 303 308 321 302 300 296 294 293 290 287 283 281 279 279 279 279 279 278
56 44 43 44 46 47 52 52 51 57 53 52 40 32 349 336 345 359 5 4 317 311 318 293 278 278 282 283 284 285 284 283 284 284 284 283 282 281
55 46 43 36 38 34 37 36 31 35 44 94 106 281 279 268 252 294 264 243 256 273 305 289 279 276 278 283 294 293 290 290 290 289 288 287 287 286
53 53 47 14 13 50 42 27 16 10 10 34 203 240 243 242 226 226 238 261 267 262 226 268 294 282 292 295 299 297 300 306 306 304 300 296 292 288
30 33 37 5 9 29 46 23 5 348 358 0 351 334 326 319 298 228 277 308 304 291 242 253 300 306 296 293 304 314 318 315 309 306 303 299 295 292
16 6 6 3 2 9 54 16 334 314 328 343 349 352 354 352 359 29 181 202 260 289 288 282 297 331 316 291 270 280 289 293 297 302 304 300 294 289
20 349 329 341 348 348 358 297 295 326 360 339 332 333 341 348 354 357 225 189 218 253 272 299 274 249 262 293 289 256 257 267 280 290 296 293 290 287
321 294 297 324 339 345 343 320 335 6 4 333 331 328 328 324 318 315 299 271 249 252 261 254 256 253 271 284 285 286 269 264 270 278 277 284 286 290
279 312 327 340 354 350 339 347 8 9 333 323 316 306 298 294 302 307 300 290 277 267 262 252 247 258 261 269 277 287 300 291 267 259 265 267 274 276
307 322 343 354 5 353 353 358 353 316 302 288 293 294 299 305 307 307 304 309 300 286 266 260 251 247 260 263 270 279 280 278 283 275 277 280 274 267
278 314 347 345 345 338 332 327 328 335 336 314 303 306 308 309 307 306 298 300 290 295 300 282 264 251 247 259 269 270 273 274 272 277 283 286 280 266
309 284 293 296 295 300 307 311 311 310 308 303 299 297 298 299 299 297 291 289 290 290 292 293 294 293 276 260 242 257 264 267 273 273 271 284 288 277
295 265 267 271 275 278 278 279 286 292 293 289 289 291 291 290 291 292 292 289 287 286 285 282 279 281 291 296 269 236 247 270 279 282 277 275 281 285
247 254 261 264 265 266 269 274 280 286 284 283 283 283 282 283 285 284 284 283 286 287 287 279 267 261 267 281 284 276 262 262 271 277 281 280 278 280
254 254 255 257 259 259 262 266 271 276 278 280 278 277 276 277 278 276 279 284 287 286 286 284 274 280 278 277 278 278 270 261 259 266 276 283 287 288
251 253 254 253 252 253 256 260 266 269 273 275 275 275 273 272 274 277 279 280 280 279 281 283 283 281 270 273 277 284 290 287 275 273 269 266 272 277
249 251 252 252 250 250 251 255 260 265 265 267 271 272 272 273 273 275 277 278 279 280 284 288 288 279 274 272 276 281 284 288 291 288 277 268 267 267
Height
1490 1489 1489 1488 1488 1487 1486 1485 1485 1481 1480 1479 1480 1479 1479 1480 1481 1482 1484 1485 1487 1489 1491 1492 1493 1494 1494 1494 1494 1494 1493 1493 1493 1493 1493 1492 1492 1493
1484 1484 1483 1483 1482 1481 1481 1480 1479 1478 1476 1475 1475 1475 1475 1476 1477 1478 1479 1481 1482 1484 1486 1487 1487 1487 1487 1487 1487 1487 1487 1486 1486 1486 1486 1486 1486 1487
1480 1479 1479 1478 1478 1477 1476 1475 1475 1474 1473 1472 1471 1471 1472 1472 1473 1474 1475 1477 1478 1479 1480 1481 1481 1481 1481 1481 1481 1481 1480 1480 1479 1479 1480 1480 1480 1480
1477 1476 1476 1475 1475 1474 1473 1472 1471 1471 1470 1469 1469 1469 1469 1470 1470 1471 1472 1472 1473 1474 1474 1475 1475 1476 1476 1475 1475 1475 1474 1473 1473 1473 1473 1473 1473 1473
1475 1475 1474 1473 1473 1472 1471 1470 1469 1468 1468 1468 1467 1467 1467 1468 1468 1469 1469 1469 1469 1469 1469 1470 1470 1470 1470 1469 1469 1468 1468 1467 1467 1467 1467 1467 1467 1467
1474 1474 1473 1472 1471 1470 1469 1468 1468 1467 1466 1466 1466 1466 1466 1466 1466 1466 1466 1466 1466 1465 1465 1465 1465 1465 1464 1463 1463 1462 1461 1461 1461 1461 1461 1461 1460 1460
1474 1473 1472 1471 1470 1469 1469 1468 1467 1466 1465 1465 1464 1464 1464 1464 1464 1463 1463 1462 1462 1461 1461 1461 1460 1459 1459 1458 1457 1456 1456 1455 1455 1455 1455 1455 1454 1454
1474 1473 1472 1471 1470 1469 1467 1467 1466 1465 1464 1464 1463 1463 1463 1462 1461 1461 1460 1459 1459 1459 1457 1457 1456 1455 1454 1453 1452 1451 1451 1450 1450 1449 1449 1448 1448 1447
1473 1472 1471 1470 1469 1468 1467 1466 1465 1464 1464 1463 1462 1461 1461 1460 1459 1459 1458 1457 1456 1455 1454 1452 1452 1451 1450 1448 1447 1446 1445 1445 1444 1443 1442 1442 1441 1440
1473 1472 1471 1469 1468 1467 1466 1465 1464 1463 1462 1461 1460 1459 1459 1458 1457 1457 1455 1454 1454 1453 1451 1448 1447 1446 1445 1444 1442 1442 1441 1440 1439 1437 1436 1435 1434 1433
1473 1471 1470 1469 1467 1466 1465 1463 1462 1461 1460 1459 1459 1458 1457 1456 1455 1454 1453 1452 1450 1449 1448 1446 1443 1441 1440 1439 1438 1437 1436 1435 1433 1431 1429 1428 1427 1425
1472 1471 1469 1468 1467 1465 1464 1462 1461 1460 1459 1458 1457 1456 1455 1454 1453 1452 1451 1449 1448 1446 1444 1443 1440 1438 1435 1433 1433 1433 1431 1429 1427 1425 1423 1421 1420 1418
1471 1470 1468 1467 1466 1464 1463 1461 1460 1459 1457 1456 1455 1454 1453 1452 1450 1449 1448 1447 1445 1443 1443 1440 1437 1435 1433 1429 1426 1426 1425 1423 1421 1419 1417 1415 1414 1412
1470 1468 1467 1466 1464 1463 1462 1460 1459 1457 1456 1454 1453 1452 1450 1449 1448 1446 1445 1443 1441 1440 1438 1436 1434 1432 1429 1424 1421 1419 1419 1417 1414 1412 1411 1410 1408 1406
1469 1467 1466 1464 1463 1462 1460 1459 1457 1455 1454 1452 1451 1449 1448 1446 1444 1443 1441 1439 1437 1436 1434 1431 1429 1427 1425 1421 1417 1414 1412 1410 1409 1407 1405 1403 1401 1399
1467 1465 1464 1463 1461 1460 1458 1457 1455 1453 1451 1450 1448 1446 1444 1442 1441 1438 1436 1434 1432 1431 1430 1427 1424 1422 1419 1416 1413 1409 1407 1405 1403 1401 1398 1395 1393 1391
1465 1464 1462 1461 1459 1458 1456 1454 1452 1450 1449 1447 1445 1443 1441 1439 1437 1435 1432 1430 1427 1425 1423 1422 1420 1417 1414 1411 1407 1404 1402 1399 1397 1395 1391 1387 1385 1384
1463 1461 1459 1458 1456 1454 1453 1451 1449 1447 1445 1443 1441 1439 1437 1435 1433 1431 1428 1426 1423 1420 1418 1416 1414 1411 1408 1405 1403 1398 1396 1394 1391 1388 1385 1380 1376 1376
1460 1458 1456 1455 1453 1451 1449 1447 1446 1444 1442 1439 1437 1435 1433 1431 1428 1426 1424 1421 1419 1416 1414 1412 1409 1406 1402 1397 1395 1394 1391 1387 1384 1381 1378 1375 1370 1367
1456 1455 1453 1451 1449 1447 1445 1443 1441 1440 1438 1435 1433 1431 1429 1426 1424 1422 1419 1417 1414 1411 1408 1406 1404 1402 1398 1393 1388 1384 1385 1381 1378 1374 1371 1367 1363 1360
1453 1451 1449 1447 1445 1443 1441 1439 1437 1435 1433 1431 1429 1427 1424 1422 1419 1417 1414 1412 1409 1406 1402 1400 1398 1396 1392 1388 1382 1376 1376 1375 1372 1368 1364 1360 1355 1351
1449 1447 1445 1443 1441 1439 1436 1434 1432 1430 1428 1426 1424 1422 1419 1417 1414 1412 1409 1406 1403 1400 1396 1393 1391 1389 1386 1381 1376 1370 1366 1365 1363 1361 1358 1354 1351 1344
1444 1442 1440 1438 1436 1434 1432 1429 1427 1425 1423 1421 1419 1416 1414 1412 1409 1406 1403 1401 1397 1394 1390 1387 1384 1381 1378 1374 1369 1364 1359 1356 1353 1349 1347 1346 1343 1339